Limon, CO

4:45 AM MDT on April 21, 2018 (GMT -0600)
Limon Municipal

Weather History for KLIC - February, 2013

Change the Weather History Date:

Monday, February 25, 2013

  Actual Average Record
Temperature  
Mean Temperature 14 °F -  
Max Temperature 28 °F - 66 °F (1999)
Min Temperature 0 °F - 0 °F (2013)
Degree Days  
Heating Degree Days 51    
Month to date heating degree days 971  
Cooling Degree Days 0    
Month to date cooling degree days 0  
Moisture  
Dew Point 12 °F    
Average Humidity 82    
Maximum Humidity 96    
Minimum Humidity 56    
Precipitation  
Precipitation 0.00 in - 0.05 in (2008)
Month to date precipitation 0.54  
Year to date precipitation 0.83  
Snow  
Snow 0.00 in - - ()
Snow Depth -    
Sea Level Pressure  
Sea Level Pressure 30.05 in    
Wind  
Wind Speed 14 mph (NNW)    
Max Wind Speed 24 mph    
Max Gust Speed 30 mph    
Visibility 10 miles    
Events      
T = Trace of Precipitation, MM = Missing Value Source: NWS Daily Summary

Daily Weather History Graph

Daily Weather History Graph

Search for Another Location

Airport or City:

Astronomy

Feb. 25, 2013 Rise Set
Actual Time 6:32 AM MST 5:43 PM MST
Civil Twilight 6:05 AM MST 6:10 PM MST
Nautical Twilight 5:34 AM MST 6:41 PM MST
Astronomical Twilight 5:03 AM MST 7:12 PM MST
Moon 5:58 PM MST (2/25) 6:04 AM MST (2/25)
Length of Visible Light 12h 04m
Length of Day
11h 10m
Full, 100% of the Moon is Illuminated
Feb 25
Full
Feb 25
Full
Mar 4
Last Quarter
Mar 11
New
Mar 19
First Quarter

Hourly Weather History & Observations

Time (MST) Temp. Windchill Dew Point Humidity Pressure Visibility Wind Dir Wind Speed Gust Speed Precip Events Conditions
12:33 AM 21.2 °F 4.9 °F 19.4 °F 93% 30.01 in 10.0 mi North 23.0 mph 27.6 mph N/A   Overcast
12:55 AM 21.0 °F 5.4 °F 19.0 °F 92% 30.09 in 10.0 mi North 20.7 mph 27.6 mph N/A   Overcast
1:14 AM 21.2 °F 6.0 °F 19.4 °F 93% 30.01 in 10.0 mi North 19.6 mph 27.6 mph N/A   Overcast
1:55 AM 21.0 °F 10.6 °F 19.0 °F 92% 30.12 in 10.0 mi NNE 9.2 mph 24.2 mph N/A   Overcast
2:37 AM 19.4 °F 4.5 °F 17.6 °F 93% 30.01 in 10.0 mi NNW 17.3 mph 25.3 mph N/A   Overcast
2:45 AM 19.4 °F 4.5 °F 17.6 °F 93% 30.01 in 10.0 mi NNW 17.3 mph 25.3 mph N/A   Overcast
2:55 AM 19.9 °F 6.2 °F 19.0 °F 96% 30.10 in 10.0 mi NNW 15.0 mph 24.2 mph N/A   Overcast
3:25 AM 19.4 °F 4.5 °F 17.6 °F 93% 29.98 in 10.0 mi NNW 17.3 mph - N/A   Overcast
3:55 AM 19.0 °F 2.7 °F 17.1 °F 92% 30.07 in 10.0 mi NNW 20.7 mph 29.9 mph N/A   Overcast
4:22 AM 19.4 °F 5.5 °F 15.8 °F 86% 29.97 in 10.0 mi NW 15.0 mph 26.5 mph N/A   Overcast
4:55 AM 17.1 °F 8.7 °F 15.1 °F 92% 30.12 in 10.0 mi NNW 5.8 mph - N/A   Overcast
5:55 AM 16.0 °F 4.4 °F 12.9 °F 88% 30.12 in 10.0 mi NNW 9.2 mph - N/A   Overcast
6:15 AM 12.2 °F -1.0 °F 10.4 °F 92% 30.00 in 10.0 mi NNW 10.4 mph - N/A   Scattered Clouds
6:55 AM 7.0 °F -5.7 °F 5.0 °F 92% 30.17 in 10.0 mi North 8.1 mph - N/A   Clear
7:55 AM 10.0 °F -4.5 °F 7.0 °F 87% 30.17 in 10.0 mi NW 11.5 mph - N/A   Clear
8:55 AM 16.0 °F 2.9 °F 12.0 °F 84% 30.16 in 10.0 mi NNW 11.5 mph - N/A   Clear
9:55 AM 19.0 °F 5.6 °F 14.0 °F 81% 30.12 in 10.0 mi NW 13.8 mph - N/A   Clear
10:55 AM 21.9 °F 14.5 °F 15.1 °F 75% 30.09 in 10.0 mi NW 5.8 mph - N/A   Clear
11:55 AM 24.1 °F 13.7 °F 14.0 °F 65% 30.05 in 10.0 mi NW 10.4 mph - N/A   Clear
12:55 PM 26.1 °F 16.8 °F 14.0 °F 60% 30.01 in 10.0 mi WNW 9.2 mph - N/A   Clear
1:55 PM 27.0 °F 21.6 °F 12.9 °F 56% 30.00 in 10.0 mi NW 4.6 mph - N/A   Clear
2:55 PM 27.0 °F 18.7 °F 12.9 °F 56% 30.00 in 10.0 mi North 8.1 mph - N/A   Clear
3:55 PM 27.0 °F 23.0 °F 12.9 °F 56% 30.00 in 10.0 mi NW 3.5 mph - N/A   Clear
4:55 PM 21.9 °F 15.7 °F 12.0 °F 66% 30.01 in 10.0 mi NNW 4.6 mph - N/A   Clear
5:55 PM 16.0 °F 8.8 °F 10.0 °F 77% 30.04 in 10.0 mi North 4.6 mph - N/A   Clear
6:55 PM 5.0 °F -2.1 °F 3.0 °F 92% 30.11 in 10.0 mi Variable 3.5 mph - N/A   Clear
7:55 PM 3.0 °F -6.4 °F -0.9 °F 84% 30.09 in 10.0 mi NW 4.6 mph - N/A   Clear
8:55 PM 9.0 °F -5.9 °F 3.9 °F 80% 30.03 in 10.0 mi WNW 11.5 mph - N/A   Clear
9:55 PM 9.0 °F 0.6 °F 1.0 °F 70% 30.01 in 10.0 mi WNW 4.6 mph - N/A   Clear
10:55 PM 6.1 °F -5.6 °F -0.9 °F 73% 29.99 in 10.0 mi NNW 6.9 mph - N/A   Clear
11:55 PM -0.0 °F -9.9 °F -4.0 °F 83% 29.99 in 10.0 mi NNW 4.6 mph - N/A   Clear